K5BV Weather Reports


Display with metric or nautical units.
time (UTC)temp
F
wind
direction
speed
MPH
gust
MPH
rain 1hr
in
rain 24hr
in
rain mn
in
humidity
%
barometer
mb
20180818154302 85 195 6.0 9.0 0.00 0.00 0.00 78 1017.1
20180818153302 85 178 4.0 8.0 0.00 0.00 0.00 79 1017.1
20180818151310 85 210 5.0 8.0 0.00 0.00 0.00 82 1017.2
20180818150302 83 217 5.0 9.0 0.00 0.00 0.00 82 1017.1
20180818145303 83 207 5.0 7.0 0.00 0.00 0.00 82 1017.1
20180818143302 83 214 5.0 9.0 0.00 0.00 0.00 84 1017.1
20180818142302 83 219 6.0 9.0 0.00 0.00 0.00 84 1017.1
20180818141302 83 218 5.0 9.0 0.00 0.00 0.00 84 1017.0
20180818140302 83 195 5.0 9.0 0.00 0.00 0.00 85 1017.1
20180818135302 83 199 5.0 9.0 0.00 0.00 0.00 85 1017.1
20180818133302 82 230 5.0 9.0 0.00 0.00 0.00 88 1017.1
20180818132302 82 214 5.0 8.0 0.00 0.00 0.00 88 1017.0
20180818131302 82 227 4.0 6.0 0.00 0.00 0.00 90 1016.9
20180818130302 81 242 2.0 9.0 0.00 0.00 0.00 91 1016.9
20180818125303 81 211 5.0 9.0 0.00 0.00 0.00 92 1017.0
20180818124301 81 209 5.0 10.0 0.00 0.00 0.00 91 1016.9
20180818123302 81 208 5.0 10.0 0.00 0.00 0.00 91 1017.0
20180818122302 81 207 7.0 13.0 0.00 0.00 0.00 91 1017.0
20180818121301 81 201 6.0 12.0 0.00 0.00 0.00 90 1017.1
20180818120301 81 187 6.0 12.0 0.00 0.00 0.00 90 1016.9
20180818114302 81 200 6.0 12.0 0.00 0.00 0.00 89 1016.9
20180818113302 81 186 7.0 12.0 0.00 0.00 0.00 88 1016.9
20180818112305 81 202 5.0 12.0 0.00 0.00 0.00 88 1016.7
20180818110302 81 185 6.0 13.0 0.00 0.00 0.00 89 1016.8
20180818105302 80 192 6.0 14.0 0.00 0.00 0.00 88 1016.7
20180818101302 81 177 8.0 10.0 0.00 0.00 0.00 90 1016.9
20180818100302 81 189 6.0 14.0 0.00 0.00 0.00 90 1016.9
20180818093301 82 185 7.0 15.0 0.00 0.00 0.00 89 1016.7
20180818092305 81 186 8.0 14.0 0.00 0.00 0.00 89 1016.6
20180818091302 82 193 7.0 13.0 0.00 0.00 0.00 90 1016.8
20180818090302 82 190 9.0 14.0 0.00 0.00 0.00 91 1016.6
20180818085302 82 190 7.0 12.0 0.00 0.00 0.00 91 1016.4
20180818084302 82 177 8.0 16.0 0.00 0.00 0.00 90 1016.6
20180818083302 82 190 8.0 14.0 0.00 0.00 0.00 90 1016.6
20180818082305 82 171 7.0 15.0 0.00 0.00 0.00 90 1016.7
20180818081302 82 165 9.0 15.0 0.00 0.00 0.00 89 1016.8
20180818075305 82 175 9.0 18.0 0.00 0.00 0.00 89 1016.9
20180818074301 82 165 10.0 18.0 0.00 0.00 0.00 89 1017.1
20180818072305 82 170 9.0 16.0 0.00 0.00 0.00 89 1017.2
20180818071303 82 168 10.0 16.0 0.00 0.00 0.00 89 1017.1
20180818070301 82 173 9.0 15.0 0.00 0.00 0.00 89 1017.2
20180818064301 82 165 12.0 16.0 0.00 0.00 0.00 89 1017.2
20180818063302 82 167 9.0 15.0 0.00 0.00 0.00 89 1017.2
20180818062301 81 166 11.0 16.0 0.00 0.00 0.00 88 1017.2
20180818061302 82 165 9.0 16.0 0.00 0.00 0.00 88 1017.2
20180818055303 82 163 9.0 16.0 0.00 0.00 0.00 87 1017.5
20180818054302 82 167 9.0 16.0 0.00 0.00 0.00 87 1017.5
20180818052302 82 170 9.0 15.0 0.00 0.00 0.00 87 1017.6
20180818044301 83 161 7.0 16.0 0.00 0.00 0.00 87 1017.6
20180818043302 83 162 10.0 16.0 0.00 0.00 0.00 86 1017.6
20180818042301 83 165 9.0 16.0 0.00 0.00 0.00 87 1017.6
20180818041302 83 158 10.0 17.0 0.00 0.00 0.00 87 1017.7
20180818040301 83 159 9.0 17.0 0.00 0.00 0.00 87 1017.8
20180818034303 83 159 9.0 15.0 0.00 0.00 0.00 86 1017.7
20180818033303 83 154 9.0 16.0 0.00 0.00 0.00 86 1017.5
20180818032303 83 161 10.0 16.0 0.00 0.00 0.00 86 1017.3
20180818024303 83 158 7.0 14.0 0.00 0.00 0.00 85 1017.1
20180818023303 83 152 9.0 16.0 0.00 0.00 0.00 84 1016.9
20180818020303 83 155 10.0 16.0 0.00 0.00 0.00 83 1016.5
20180818015303 84 150 9.0 14.0 0.00 0.00 0.00 84 1016.4
20180818014303 83 151 9.0 14.0 0.00 0.00 0.00 84 1016.4
20180818012302 83 148 9.0 15.0 0.00 0.00 0.00 83 1016.3
20180818011303 84 154 9.0 16.0 0.00 0.00 0.00 83 1016.1
20180818010303 84 152 9.0 14.0 0.00 0.00 0.00 82 1016.0
20180818003303 85 141 9.0 17.0 0.00 0.00 0.00 79 1015.9
20180818000303 86 142 8.0 15.0 0.00 0.00 0.00 79 1016.0
20180817235303 86 144 9.0 17.0 0.00 0.00 0.00 78 1016.0
20180817234303 87 137 6.0 16.0 0.00 0.00 0.00 77 1015.9
20180817232304 88 137 7.0 15.0 0.00 0.00 0.00 74 1016.0
20180817231303 87 149 7.0 14.0 0.00 0.00 0.00 74 1016.1
20180817230310 88 135 7.0 13.0 0.00 0.00 0.00 75 1016.1
20180817225303 88 129 8.0 16.0 0.00 0.00 0.00 73 1016.1
20180817221303 89 144 7.0 14.0 0.00 0.00 0.00 69 1016.0
20180817214303 90 142 6.0 13.0 0.00 0.00 0.00 70 1016.1
20180817212302 89 149 7.0 14.0 0.00 0.00 0.00 69 1016.5
20180817211303 87 149 7.0 16.0 0.00 0.00 0.00 71 1016.5
20180817210302 88 153 9.0 15.0 0.00 0.00 0.00 72 1016.6
20180817204303 88 154 10.0 15.0 0.00 0.00 0.00 69 1016.9
20180817203303 88 154 9.0 13.0 0.00 0.00 0.00 71 1016.9
20180817201303 88 145 8.0 13.0 0.00 0.00 0.00 71 1017.1
20180817200302 89 149 9.0 13.0 0.00 0.00 0.00 72 1017.1
20180817194302 88 142 7.0 12.0 0.00 0.00 0.00 71 1017.2
20180817193303 89 148 8.0 14.0 0.00 0.00 0.00 70 1017.4
20180817191302 88 135 7.0 10.0 0.00 0.00 0.00 73 1017.5
20180817185302 87 153 7.0 12.0 0.00 0.00 0.00 73 1017.7
20180817184303 88 161 6.0 13.0 0.00 0.00 0.00 74 1017.8
20180817181302 87 167 6.0 10.0 0.00 0.00 0.00 74 1018.0
20180817175302 86 166 7.0 14.0 0.00 0.00 0.00 76 1018.2
20180817174302 86 161 9.0 15.0 0.00 0.00 0.00 76 1018.2
20180817173303 85 177 8.0 14.0 0.00 0.00 0.00 78 1018.3
20180817172303 86 174 7.0 14.0 0.00 0.00 0.00 78 1018.2
20180817171302 85 164 7.0 13.0 0.00 0.00 0.00 78 1018.3
20180817170303 85 176 7.0 12.0 0.00 0.00 0.00 78 1018.4
20180817165303 86 181 7.0 13.0 0.00 0.00 0.00 78 1018.4
20180817164302 85 189 6.0 12.0 0.00 0.00 0.00 78 1018.5
20180817163304 85 186 6.0 14.0 0.00 0.00 0.00 80 1018.5
20180817162302 86 193 7.0 12.0 0.00 0.00 0.00 81 1018.4
20180817161302 84 175 9.0 12.0 0.00 0.00 0.00 81 1018.4